Flag for U.S.A. Weather past 2 weeks in Warren, Michigan, U.S.A.

Now
58 °F

Partly sunny.


Feels Like: 56 °F
Forecast: 44 / 58 °F
Wind: 10 mph from Northeast

Location: Detroit City Airport


UV Index: 5 (Moderate)

Visibility: 9 mi


Pressure: 30.27 "Hg

Humidity: 58%

Dew point: 43 °F

Location of WarrenLocation

Historic Weather in Warren

°F

Warren temperature yesterday

Maximum temperature yesterday: 64 °F (at 3:53 PM)
Minimum temperature yesterday: 35 °F (at 3:53 AM)
Average temperature yesterday: 49 °F

Past Weeks' High & Low Weather Summary

 TemperatureHumidityPressure
High79 °F (Apr 13, 3:53 PM)93% (Apr 4, 5:53 AM)30.49 "Hg (Apr 4, 5:53 AM)
Low24 °F (Apr 16, 4:53 AM)21% (Apr 6, 3:53 PM)29.44 "Hg (Apr 4, 1:53 PM)
Average48 °F55%29.94 "Hg
* Reported Apr 3 3:53 PM — Apr 18 3:53 PM, Warren, Weather by CustomWeather, © 2014

Note: Actual official high and low records may vary slightly from our data, if they occured in-between our weather recording intervals... More about our weather records

Advertising

Historic Weather Conditions — Data for Previous 24 hours

 ConditionsComfort  
Time TempWeatherWind HumidityBarometerVisibility
3:53 PM
Apr 18
58 °FPartly sunny.10 mph58%30.27 "Hg9 mi
2:53 PM54 °FBroken clouds.8 mph67%30.29 "Hg8 mi
1:53 PM54 °FMostly cloudy.14 mph69%30.29 "Hg9 mi
1:00 PM58 °FMostly cloudy.6 mph54%30.27 "Hg10 mi
11:53 AM56 °FMostly cloudy.3 mph60%30.27 "Hg10 mi
10:53 AM55 °FBroken clouds.3 mph59%30.28 "Hg10 mi
9:53 AM52 °FPartly sunny.7 mph66%30.28 "Hg10 mi
8:53 AM51 °FOvercast.No wind63%30.29 "Hg10 mi
7:53 AM50 °FMostly cloudy.No wind63%30.29 "Hg10 mi
6:53 AM49 °FOvercast.No wind66%30.28 "Hg10 mi
5:53 AM48 °FPassing clouds.No wind68%30.25 "Hg10 mi
4:53 AM51 °FPassing clouds.No wind61%30.24 "Hg10 mi
3:53 AM51 °FOvercast.5 mph61%30.23 "Hg10 mi
2:53 AM52 °FOvercast.3 mph55%30.23 "Hg10 mi
1:53 AM50 °FPassing clouds.3 mph59%30.24 "Hg10 mi
12:53 AM49 °FPassing clouds.3 mph59%30.25 "Hg10 mi
11:53 PM
Apr 17
50 °FPassing clouds.5 mph57%30.26 "Hg10 mi
10:53 PM51 °FClear.7 mph54%30.28 "Hg10 mi
9:53 PM52 °FClear.5 mph53%30.27 "Hg10 mi
8:53 PM55 °FSunny.9 mph47%30.25 "Hg10 mi
7:53 PM59 °FSunny.10 mph41%30.24 "Hg10 mi
6:53 PM64 °FSunny.10 mph32%30.24 "Hg10 mi
5:53 PM64 °FSunny.13 mph32%30.25 "Hg10 mi
4:53 PM64 °FSunny.15 mph30%30.26 "Hg10 mi
Weather by CustomWeather, © 2014

See weather overview